TimeEDT,TemperatureF,Dew PointF,Humidity,Sea Level PressureIn,VisibilityMPH,Wind Direction,Wind SpeedMPH,Gust SpeedMPH,PrecipitationIn,Events,Conditions,WindDirDegrees,DateUTC
12:51 AM,39.9,36.9,89,30.03,10.0,WNW,3.5,-,N/A,,Clear,300,2012-10-18 04:51:00
1:51 AM,41.0,37.9,89,30.03,10.0,Calm,Calm,-,N/A,,Clear,0,2012-10-18 05:51:00
2:51 AM,38.8,36.9,93,30.04,10.0,NW,3.5,-,N/A,,Clear,320,2012-10-18 06:51:00
3:51 AM,38.8,36.0,89,30.04,10.0,Calm,Calm,-,N/A,,Clear,0,2012-10-18 07:51:00
4:51 AM,37.9,36.0,93,30.05,10.0,NW,3.5,-,N/A,,Clear,310,2012-10-18 08:51:00
5:51 AM,36.9,34.0,89,30.07,10.0,NW,4.6,-,N/A,,Clear,310,2012-10-18 09:51:00
6:51 AM,36.9,34.9,93,30.08,7.0,NW,3.5,-,N/A,,Clear,320,2012-10-18 10:51:00
7:51 AM,37.9,34.9,89,30.09,10.0,Calm,Calm,-,N/A,,Clear,0,2012-10-18 11:51:00
8:51 AM,41.9,37.9,86,30.12,10.0,Calm,Calm,-,N/A,,Clear,0,2012-10-18 12:51:00
9:51 AM,47.8,41.0,77,30.13,10.0,Calm,Calm,-,N/A,,Clear,0,2012-10-18 13:51:00
10:51 AM,54.0,41.0,62,30.12,9.0,East,3.5,-,N/A,,Clear,80,2012-10-18 14:51:00
11:51 AM,59.0,43.0,55,30.10,10.0,Variable,5.8,-,N/A,,Clear,0,2012-10-18 15:51:00
12:51 PM,63.0,41.0,45,30.09,10.0,SSW,6.9,-,N/A,,Clear,200,2012-10-18 16:51:00
1:51 PM,64.9,39.9,40,30.09,10.0,Variable,4.6,-,N/A,,Clear,0,2012-10-18 17:51:00
2:51 PM,64.9,37.9,37,30.06,10.0,SE,5.8,-,N/A,,Clear,130,2012-10-18 18:51:00
3:51 PM,65.8,38.8,37,30.07,10.0,SE,5.8,-,N/A,,Clear,130,2012-10-18 19:51:00
4:51 PM,63.9,45.0,50,30.06,10.0,SE,9.2,-,N/A,,Clear,130,2012-10-18 20:51:00
5:51 PM,59.9,46.9,62,30.07,10.0,SE,8.1,-,N/A,,Clear,130,2012-10-18 21:51:00
6:51 PM,56.8,46.9,69,30.07,10.0,SE,6.9,-,N/A,,Clear,130,2012-10-18 22:51:00
7:51 PM,54.0,46.9,77,30.11,10.0,SE,4.6,-,N/A,,Clear,140,2012-10-18 23:51:00
8:51 PM,50.0,45.9,86,30.12,10.0,Calm,Calm,-,N/A,,Clear,0,2012-10-19 00:51:00
9:51 PM,46.9,45.0,93,30.14,10.0,Calm,Calm,-,N/A,,Scattered Clouds,0,2012-10-19 01:51:00
10:13 PM,46.4,44.6,93,30.14,10.0,NW,3.5,-,N/A,,Mostly Cloudy,310,2012-10-19 02:13:00
10:51 PM,48.9,45.9,89,30.14,10.0,Calm,Calm,-,N/A,,Overcast,0,2012-10-19 02:51:00
11:51 PM,47.8,45.9,93,30.12,10.0,Calm,Calm,-,N/A,,Partly Cloudy,0,2012-10-19 03:51:00